Regional Weather Roundup
Issued by NWS Sioux Falls, SD

Home | Current Version | Previous Version | Graphics & Text | Print | Product List | Glossary Off
Versions: 1 2 3 4 5 6 7 8 9 10 11 12 13 14 15 16 17 18 19 20 21 22 23 24 25 26 27 28 29 30 31 32 33 34 35 36 37 38 39 40 41 42 43 44 45 46 47 48 49 50

000
ASUS43 KFSD 221410
RWRFSD

WEATHER ROUNDUP FOR SE SOUTH DAKOTA/SW MINNESOTA/NW IOWA
NATIONAL WEATHER SERVICE SIOUX FALLS SD
900 AM CDT WED OCT 22 2014

NOTE: "FAIR" INDICATES FEW OR NO CLOUDS BELOW 12,000 FEET WITH NO
SIGNIFICANT WEATHER AND OR OBSTRUCTIONS TO VISIBILITY.


SDZ038>040-050-052>070-221500-
SOUTHEAST SOUTH DAKOTA

CITY           SKY/WX    TMP DP  RH WIND       PRES   REMARKS
CHAMBERLAIN    CLOUDY    60  52  74 S13       29.85R
HURON          PTCLDY    55  44  66 S16G25    29.87S
MADISON        FAIR      52  45  76 S17G25    29.95S
MITCHELL       SUNNY     56  45  66 S20       29.91R
SIOUX FALLS    MOSUNNY   54  44  69 S16       29.99S
WINNER         PTSUNNY   64  48  56 W13       29.92R
YANKTON        SUNNY     55  45  67 S13       29.97S
$$

MNZ071-072-080-081-089-090-097-098-221500-
SOUTHWEST MINNESOTA

CITY           SKY/WX    TMP DP  RH WIND       PRES   REMARKS
FAIRMONT       PTSUNNY   45  36  70 SE22      30.13F
JACKSON        SUNNY     46  37  71 SE16G22   30.10S
LUVERNE        SUNNY     52  43  71 S12G17    30.03S
MARSHALL       MOSUNNY   54  39  58 S18       29.99S
MONTEVIDEO     SUNNY     50  39  66 S14G23    29.99F
PIPESTONE      SUNNY     52  43  71 S21G30    29.99F
REDWOOD FALLS  SUNNY     48  39  71 SE18      30.05F
TRACY          SUNNY     51  41  70 S22G30    30.01S
WINDOM         SUNNY     48  39  71 SE14G23   30.08S
WORTHINGTON    SUNNY     48  39  71 S16G24    30.06F
$$

IAZ001>003-012>014-020>022-031-032-NEZ013-014-SDZ071-221500-
NORTHWEST IOWA

CITY           SKY/WX    TMP DP  RH WIND       PRES   REMARKS
CHEROKEE       MOSUNNY   50  44  78 SE13G20   30.09S
DENISON        SUNNY     52  43  71 S8G15     30.10S
ESTHERVILLE    SUNNY     45  39  79 S21       30.12S
LE MARS        SUNNY     55  45  67 S14G23    30.05S
ORANGE CITY    SUNNY     54  45  71 SE12      30.05S
SHELDON        MOSUNNY   50  43  76 SE20G29   30.05R
SIOUX CITY     SUNNY     55  45  68 S12       30.06R
SPENCER        SUNNY     49  40  71 SE20G28   30.10F
STORM LAKE     SUNNY     46  41  81 SE20G25   30.11F
$$

ABBREVIATIONS USED IN REMARKS
   TC - TEMPERATURE IN CELSIUS
  WCI - WIND CHILL INDEX
   HX - HEAT INDEX
  VSB - VISIBILITY




USA.gov is the U.S. government's official web portal to all federal, state and local government web resources and services.